Regional Weather Roundup
Issued by NWS Binghamton, NY

Home | Current Version | Previous Version | Text Only | Print | Product List | Glossary On
Versions: 1 2 3 4 5 6 7 8 9 10 11 12 13 14 15 16 17 18 19 20 21 22 23 24 25 26 27
000
ASUS41 KBGM 271510
RWRBGM

REGIONAL WEATHER ROUNDUP
NATIONAL WEATHER SERVICE BINGHAMTON NY
1100 AM EDT SAT MAY 27 2017

Note: "fair" indicates few or no clouds below 12,000 feet with no
significant weather and/or obstructions to visibility.

* = Station(s) that does not report precipitation, such as rain,
snow, etc, also no thunder or fog.

NYZ009-015>018-022>025-036-037-044>046-055>057-062-271600
...Central New York...

CITY           SKY/WX    TMP DP  RH WIND       PRES   REMARKS
Binghamton     CLOUDY    58  54  86 W5        29.91S
Cortland       DRIZZLE   57  55  94 CALM      29.92R
Dansville      CLOUDY    63  54  72 NW3       29.92R
Elmira         CLOUDY    64  54  69 SW5       29.90S
Seneca Falls   CLOUDY    64  57  77 N3        29.91S
Ithaca         NOT AVBL
Hamilton       CLOUDY    61  54  77 N5        29.91R
Hornell        CLOUDY    63  54  72 CALM      29.95S
Monticello     CLOUDY    61  54  77 N6        29.91S
Norwich        CLOUDY    63  54  72 N5        29.91S
Oneonta        MOSUNNY   61 N/A N/A N6        29.90S
Penn Yan       CLOUDY    62  53  72 NW3       29.92R
Rome           CLOUDY    61  51  70 CALM      29.90S
Sidney         CLOUDY    61  61 100 CALM      29.90S
Syracuse       LGT RAIN  58  56  93 VRB3      29.90S
$$

PAZ038>040-043-044-047-048-072-271600
...Northeast Pennsylvania...

CITY           SKY/WX    TMP DP  RH WIND       PRES   REMARKS
Hazleton       CLOUDY    64  52  63 CALM      29.95S
Scranton       CLOUDY    63  55  75 SW3       29.91S
$$
&&
KEY
WCI = Wind Chill Index
VSB = Visibility
HX  = Heat Index
$$




USA.gov is the U.S. government's official web portal to all federal, state and local government web resources and services.